Location: San Pelegr�n
(42.1868°N, 0.0079°E)
Time: 01:46:05
(UTC+00:00)

BREEZE-M DEB (TANK) - Pass Details

Date: 24 January 2020
Orbit: 323 x 14857 km, 49.5° (Epoch: 17 February)

Event Time Altitude Azimuth Distance (km) Brightness Sun altitude
Rises 18:30:09 0° 257° (WSW) 2,269 8.0 -16.0°
Reaches altitude 10° 18:32:08 10° 266° (W) 1,250 6.2 -16.4°
Maximum altitude 18:34:17 39° 340° (NNW) 525 3.0 -16.8°
Enters shadow 18:34:45 34° 11° (N) 594 3.0 -16.9°
